RH
7 15 17 13 14 15 16 18 28 32 30 27 23 22 16 7 12 12 10 6 5 4 4 4 4 4 4 4 6 7 6 17 18 12 10 30 72 83 67 50 35 29 27 34
10 13 16 15 15 17 19 25 32 31 29 24 21 18 5 12 10 8 5 5 4 4 3 2 2 2 2 2 2 2 5 6 13 12 10 10 24 83 74 72 66 43 25 34
9 23 13 17 14 18 25 33 36 30 27 23 20 13 14 13 6 10 13 10 6 11 18 37 47 31 18 14 3 1 1 4 5 12 11 10 6 18 96 61 74 36 24 26
10 18 13 22 24 27 34 32 32 29 23 17 7 6 16 15 16 47 38 37 30 45 57 59 44 44 30 29 30 30 7 2 3 4 10 13 7 7 71 42 84 59 28 22
47 32 35 38 42 37 42 41 26 14 8 5 4 6 33 30 61 67 61 39 39 36 46 60 41 18 21 32 37 30 24 28 2 3 5 10 12 7 39 83 70 74 32 38
86 65 56 54 49 47 47 28 9 8 3 3 40 64 86 72 63 58 44 29 29 24 44 57 33 26 32 27 30 31 24 9 17 4 4 6 11 10 17 73 99 59 55 37
96 76 68 63 56 51 36 11 5 3 4 9 88 99 84 62 54 47 32 21 21 18 34 43 39 40 40 30 51 42 29 12 18 10 5 4 7 10 15 70 67 99 80 83
95 91 77 64 57 40 22 4 3 4 8 17 24 31 42 45 56 65 50 29 17 26 39 36 31 30 28 74 97 74 44 14 15 16 5 4 4 8 12 99 57 98 89 77
95 99 80 70 35 11 7 4 3 6 12 14 25 40 39 41 59 56 52 45 44 58 60 59 42 32 65 71 73 96 53 89 55 59 23 6 4 6 18 41 77 99 88 97
97 98 84 51 13 5 4 4 6 14 22 25 35 100 86 60 58 47 54 56 61 69 74 68 49 24 58 90 74 99 82 100 89 90 51 15 17 7 32 44 59 100 94 94
99 98 82 22 7 5 3 5 10 20 22 26 36 55 68 56 54 56 58 68 61 77 85 77 71 22 79 78 99 80 99 99 98 100 90 26 17 46 38 61 61 94 100 99
95 71 32 5 4 4 3 5 15 26 24 48 67 71 71 62 51 65 67 82 79 81 83 86 83 64 70 100 85 52 56 77 98 90 100 89 28 32 99 58 53 88 68 97
51 13 8 7 8 9 26 17 16 18 23 28 76 54 71 51 55 75 75 87 76 72 78 81 86 92 91 84 98 100 56 51 63 97 100 72 60 24 38 100 100 91 96 95
17 12 11 91 98 26 10 11 15 20 18 45 70 55 61 58 59 91 80 89 87 85 75 83 86 96 99 99 99 100 100 90 68 53 75 99 89 56 40 33 53 80 90 86
6 6 6 4 5 7 9 10 8 16 28 61 59 44 42 58 94 96 99 98 100 98 100 100 99 99 100 100 100 90 100 68 100 52 44 42 50 91 80 62 64 61 41 88
9 8 6 6 5 8 12 49 57 29 63 63 59 41 55 99 98 99 100 100 97 93 99 100 100 98 100 100 100 100 98 59 70 91 91 100 88 87 64 97 100 100 89 69
4 4 5 6 6 8 12 32 66 58 82 82 73 69 94 100 99 100 100 100 100 99 99 99 100 98 98 99 100 100 100 100 100 99 96 100 90 99 100 99 85 76 89 97
3 3 3 7 24 22 20 33 62 90 100 100 99 94 100 92 93 100 100 100 98 95 86 76 67 88 92 86 92 97 99 100 100 100 100 100 100 100 100 100 100 100 91 88
3 3 4 5 21 30 58 56 60 81 88 82 99 100 97 88 89 97 88 89 98 74 35 18 19 23 26 29 46 39 53 73 89 89 93 98 100 100 100 97 83 72 66 64
3 3 3 4 44 40 63 76 67 68 71 76 72 91 99 96 89 96 86 71 48 29 24 36 41 41 42 36 32 30 29 28 26 25 36 30 23 20 23 29 32 32 30 33
4 4 4 3 3 8 38 61 56 65 62 65 80 87 95 99 97 99 83 48 34 44 47 45 31 15 9 7 7 6 6 6 6 6 6 6 6 6 6 6 6 6 5 5
4 5 4 4 4 23 67 76 73 78 76 72 82 96 97 98 96 100 77 69 59 45 44 18 8 7 7 7 7 7 6 7 7 8 9 9 9 9 9 8 8 8 8 7
6 5 5 6 14 20 36 56 53 62 78 88 100 100 100 100 100 100 69 44 43 50 26 9 9 10 9 8 8 7 7 7 8 10 12 11 9 7 7 6 6 5 5 5
6 4 4 4 8 8 12 26 42 57 98 100 100 100 100 100 82 68 62 54 52 37 12 10 12 11 10 9 8 8 8 7 6 5 5 5 5 5 6 8 11 12 11 10
5 5 5 5 6 8 14 39 64 88 100 100 100 100 100 100 97 71 64 59 45 20 11 13 12 11 11 10 8 7 8 8 6 7 8 10 12 14 14 13 14 14 14 13
5 5 5 7 9 12 19 27 70 97 100 100 100 100 100 100 100 100 100 78 29 14 13 15 14 15 14 11 10 9 10 12 15 17 19 21 22 20 18 17 16 15 14 13
Wind_Speed
39 38 38 43 46 48 49 46 46 45 44 46 47 52 54 56 59 62 61 64 68 70 73 76 78 81 80 76 72 72 68 70 73 71 69 69 64 60 59 57 53 50 46 44
44 44 43 43 47 49 49 48 47 46 46 49 50 54 59 56 62 63 63 68 72 75 76 77 75 75 82 89 86 82 77 72 75 77 75 69 68 64 62 59 58 50 50 47
50 48 48 45 48 49 48 47 45 45 45 47 51 51 42 55 63 56 60 63 61 47 43 44 49 53 57 59 72 84 82 83 81 82 81 74 66 65 63 62 59 58 56 51
51 47 49 47 47 47 46 47 43 44 45 47 47 50 39 52 55 45 38 37 35 35 43 54 55 49 48 47 51 52 59 77 87 88 84 80 73 71 64 59 62 61 58 55
49 50 45 45 43 42 42 42 40 41 44 47 46 49 38 42 41 34 35 35 39 39 45 50 48 40 41 46 49 52 53 52 81 85 88 82 79 73 65 63 65 67 61 59
48 48 44 43 42 38 40 38 38 41 42 44 30 29 29 32 30 31 34 35 37 39 44 43 37 35 37 46 52 54 53 48 56 80 85 86 78 75 73 65 65 69 64 65
45 44 42 39 37 37 36 35 36 37 40 39 13 23 35 36 27 30 33 35 37 41 45 38 35 42 42 40 32 36 35 36 42 56 80 87 82 78 77 67 61 84 63 69
43 39 36 37 33 34 33 31 32 34 30 27 23 37 41 30 28 32 34 34 36 44 44 33 32 36 37 35 34 22 17 24 30 44 71 84 85 83 81 67 79 52 55 72
36 33 37 31 29 29 29 29 33 30 27 27 29 31 30 24 28 34 37 36 37 39 33 30 30 31 30 28 23 13 9 5 10 28 57 80 83 84 78 76 68 59 65 83
39 29 34 27 27 25 26 28 28 24 27 26 25 24 30 25 29 35 40 31 33 33 29 28 19 24 20 23 18 8 3 13 11 10 32 67 78 83 75 76 74 69 64 50
34 27 26 26 23 23 24 25 27 24 24 30 30 32 28 25 29 33 32 26 25 25 24 25 17 20 20 17 8 11 11 5 6 11 16 47 66 64 75 73 69 58 84 58
21 21 25 21 22 19 25 26 25 26 24 27 28 26 22 23 28 32 24 22 20 21 20 19 17 14 14 3 9 12 6 11 14 10 20 26 47 71 33 67 65 50 71 36
15 23 20 19 21 22 23 25 26 27 29 30 28 29 23 26 27 27 19 17 17 19 17 21 19 15 17 10 9 4 9 6 7 11 19 21 31 54 60 48 50 67 66 72
21 22 22 15 21 23 26 27 25 27 28 28 26 26 24 25 27 25 15 16 17 19 18 19 19 18 15 8 12 8 10 7 6 6 23 17 30 34 47 53 51 45 49 55
21 20 21 20 20 23 27 27 24 25 28 26 24 26 26 27 24 14 16 14 12 14 14 14 15 16 15 13 4 13 13 10 14 6 8 8 9 17 46 47 51 60 61 57
17 20 18 16 19 23 24 21 24 24 22 21 22 22 24 22 16 17 13 11 12 15 15 14 10 10 13 11 5 2 12 9 14 10 18 7 22 15 24 24 30 46 58 61
22 18 18 15 20 23 22 23 24 20 19 18 19 20 16 13 12 12 10 10 11 12 14 12 11 8 10 11 11 12 10 9 13 18 21 18 18 15 14 36 33 34 38 39
18 16 15 16 17 21 20 22 18 15 17 16 15 14 12 14 14 11 12 14 13 14 16 15 12 12 12 13 13 11 12 10 10 9 8 9 9 10 5 5 12 17 21 20
16 15 16 16 18 19 20 18 18 15 14 15 15 18 16 15 17 17 17 17 15 12 8 6 7 9 10 9 11 12 14 16 15 13 12 9 5 3 2 6 11 13 15 17
15 14 14 16 18 25 19 21 21 24 21 20 20 19 19 22 22 21 20 16 14 10 4 5 6 7 6 6 7 7 7 8 8 6 5 5 5 5 7 10 12 15 17 19
13 13 14 17 20 26 27 27 26 26 26 26 23 21 21 22 22 24 21 15 12 10 6 5 4 3 4 7 8 9 9 10 10 10 11 12 12 13 15 17 19 21 23 25
11 12 14 18 21 26 24 27 29 28 26 26 24 23 23 23 23 23 21 15 14 11 7 5 2 3 5 6 9 11 13 15 17 20 22 25 28 30 31 32 33 34 36 38
13 13 16 19 22 25 26 27 30 30 29 26 23 24 24 22 20 18 16 14 13 12 10 8 6 7 8 11 13 14 16 18 22 25 28 30 31 35 38 41 44 44 42 40
12 15 17 22 23 27 27 28 26 26 25 26 25 21 24 23 19 18 17 15 15 14 12 9 8 9 11 12 15 18 21 24 27 28 30 31 33 33 33 32 28 29 30 32
11 16 18 23 24 25 24 22 21 20 21 21 22 23 24 22 20 19 17 16 16 15 13 12 8 8 11 14 16 19 22 26 28 29 29 29 30 31 31 32 35 37 38 41
14 16 21 21 25 23 22 21 18 15 17 18 18 18 20 21 23 22 18 16 16 15 14 13 10 11 14 16 18 20 22 25 26 27 27 28 31 33 37 40 42 43 45 47
Wind_Direction
273 276 280 286 293 293 294 288 286 284 284 285 285 285 287 287 286 285 288 288 287 284 283 282 280 278 275 267 261 257 251 250 252 249 246 241 238 237 241 246 243 242 248 253
274 276 276 281 284 289 292 287 284 283 284 286 289 291 297 297 290 294 297 294 292 291 288 286 283 279 274 269 264 258 252 245 243 245 245 241 239 236 235 240 244 241 243 247
271 276 275 277 279 284 285 283 282 284 287 289 290 294 307 298 299 301 295 293 296 301 297 294 291 286 281 275 267 258 250 241 238 238 240 240 237 238 235 235 239 241 239 240
268 272 275 277 280 282 282 281 284 287 289 294 297 295 295 295 300 298 296 294 299 308 306 299 296 292 281 280 276 269 259 240 234 232 233 236 234 237 236 236 237 243 244 242
269 269 270 272 275 280 280 282 286 290 296 296 300 300 289 294 296 295 300 294 294 299 305 305 299 295 290 279 280 277 267 255 230 228 228 230 232 234 234 238 235 241 245 248
264 266 267 269 273 276 279 282 288 293 297 299 309 297 284 294 299 297 305 295 297 298 310 309 292 293 299 296 290 285 277 264 242 227 222 223 227 228 234 233 234 235 240 244
260 259 261 267 271 274 277 282 290 296 298 299 301 273 278 291 297 301 303 306 304 301 314 312 305 292 303 300 295 287 275 262 247 237 217 217 219 224 229 231 239 215 224 239
250 256 261 262 271 272 277 283 292 292 290 283 271 280 276 281 307 308 311 306 307 313 319 307 302 302 303 305 297 314 306 257 247 240 217 211 214 221 226 225 238 240 240 238
253 249 259 263 261 268 276 288 291 285 282 277 290 295 267 278 295 307 317 311 315 318 320 313 297 313 308 312 320 306 320 252 276 236 220 207 209 216 219 223 232 238 247 231
249 247 254 260 261 267 277 288 283 275 282 284 288 278 280 277 294 308 317 310 313 321 321 323 298 304 309 311 334 353 331 306 300 253 232 213 208 213 218 220 221 233 243 246
242 239 247 251 261 268 284 279 270 267 286 284 283 285 271 282 296 307 314 314 312 321 318 325 301 303 337 26 14 341 342 297 204 217 234 222 213 215 218 221 218 235 243 262
232 239 248 244 259 270 280 277 262 266 289 288 283 283 268 281 298 314 314 327 328 323 329 333 327 318 342 305 342 353 328 336 313 193 221 220 219 208 230 222 223 230 228 237
229 235 241 253 267 274 273 271 263 265 279 286 272 270 274 286 298 311 307 331 344 347 341 353 355 331 302 286 289 137 337 348 264 218 194 211 212 220 228 239 227 242 232 245
228 229 231 217 250 269 274 269 267 268 280 281 265 263 270 285 295 300 294 320 327 340 3 11 10 3 355 273 277 267 267 203 178 276 213 233 220 214 221 230 236 246 241 241
223 226 232 243 255 264 271 279 272 270 279 275 271 263 269 279 286 276 295 324 343 357 2 16 19 8 10 6 290 257 270 262 223 156 233 235 255 236 220 225 234 237 249 240
232 233 236 246 259 259 262 267 279 282 275 271 272 274 276 275 263 283 290 302 327 339 344 349 12 22 42 40 47 49 237 213 244 252 258 242 219 224 230 242 237 239 248 253
232 234 241 246 260 266 265 256 264 281 262 263 274 269 251 270 272 286 284 296 319 333 336 348 4 22 36 38 51 62 85 136 207 217 245 239 248 236 206 231 239 252 256 255
228 234 246 254 264 268 279 265 268 275 257 259 262 260 257 256 265 284 293 303 311 320 326 342 0 11 22 29 32 43 56 73 92 111 124 137 172 196 208 225 228 240 246 251
227 238 247 253 266 272 269 278 265 264 260 265 267 259 262 270 271 279 300 302 308 316 339 9 27 37 38 39 39 33 29 28 30 35 33 31 20 8 281 268 270 267 273 275
230 239 252 258 256 261 274 269 268 262 266 271 269 266 267 267 271 272 280 287 296 298 333 356 0 5 6 20 30 27 22 23 17 15 7 0 345 321 301 292 295 296 292 287
229 243 257 260 260 262 266 269 268 269 266 267 269 267 267 268 270 269 263 267 274 277 293 309 333 10 8 7 6 5 6 3 354 349 342 334 328 321 312 305 300 294 290 287
243 262 268 270 264 260 267 266 265 264 264 263 262 263 266 264 263 259 249 253 260 259 265 258 281 308 312 326 337 338 339 337 334 329 325 324 321 318 314 309 304 300 296 292
258 273 273 275 276 275 269 267 267 267 262 264 261 264 262 256 248 234 234 240 247 249 237 238 268 296 310 317 318 317 318 319 318 315 312 310 309 307 305 302 299 297 296 294
266 280 289 282 282 278 276 275 274 270 264 255 263 267 252 239 241 240 237 241 249 243 233 246 271 293 305 312 313 318 321 319 318 314 312 310 307 303 298 296 294 295 295 294
283 284 285 278 277 274 275 276 277 269 261 259 260 261 251 237 233 239 243 247 246 241 240 253 273 302 308 314 317 317 319 318 314 313 312 310 309 308 305 301 300 300 300 299
292 290 279 277 272 272 272 275 275 268 243 249 254 256 252 248 245 245 243 246 243 238 247 258 280 310 311 311 313 313 313 311 310 309 308 307 308 308 308 306 303 300 297 296